Regional Weather Roundup
Issued by NWS

Home | Current Version | Previous Version | Text Only | Print | Product List | Glossary On
Versions: 1 2 3 4 5 6 7 8 9 10 11 12 13 14 15 16 17 18 19 20 21 22 23 24 25 26 27 28 29 30 31 32 33 34 35 36 37 38 39 40 41 42 43 44 45 46 47 48 49 50
000
ASUS45 KREV 060310
RWRNV
NEVADA REGIONAL WEATHER ROUNDUP
NATIONAL WEATHER SERVICE RENO NV
700 PM PST MON DEC 05 2016

NOTE: "FAIR" INDICATES FEW OR NO CLOUDS BELOW 12,000 FEET WITH NO
SIGNIFICANT WEATHER AND/OR OBSTRUCTIONS TO VISIBILITY.

NVZ001-003-004-060400-
WESTERN NEVADA

CITY           SKY/WX    TMP DP  RH WIND       PRES   REMARKS
RENO           PTCLDY    43   3  19 W10       29.91F
CARSON CITY    FAIR      41   0  17 W14G21    29.94F
MINDEN         FAIR      39  -4  16 W5        29.94F
PYRAMID LAKE     N/A     36 N/A N/A SW8         N/A
FALLON         PTCLDY    27  21  78 CALM      29.93S
LOVELOCK       CLEAR     25  18  74 W3        29.94S
HAWTHORNE        N/A     36  28  75 CALM      29.94S
$$

NVZ002-CAZ072-073-060400-
NORTHERN AND CENTRAL SIERRA

CITY           SKY/WX    TMP DP  RH WIND       PRES   REMARKS
S. LAKE TAHOE  CLOUDY    36   2  23 S13       29.97S
TRUCKEE        CLOUDY    21  12  68 SE6       29.96F
SQUAW VLY 8000   N/A     27 -15  15 SW14        N/A
SUSANVILLE     CLEAR     32  19  59 NW6       29.94R
MAMMOTH LAKES  FAIR      41   3  20 W15       29.97S
BRIDGEPORT       N/A     35  -4  18 W7        29.94S
$$

NVZ030-031-036-060400-
NORTHERN NEVADA

CITY           SKY/WX    TMP DP  RH WIND       PRES   REMARKS
ELKO           MOCLDY    24  12  60 CALM      29.93F
WINNEMUCCA     CLEAR     21  16  81 N3        29.94S
WENDOVER       CLEAR     27   7  43 W3        30.01S
$$

NVZ035-037-060400-
CENTRAL NEVADA

CITY           SKY/WX    TMP DP  RH WIND       PRES   REMARKS
ELY            CLEAR     18  11  74 S8        29.90R
EUREKA           N/A     15  11  83 CALM      29.92S
$$

NVZ013-014-060400-
SOUTH CENTRAL NEVADA

CITY           SKY/WX    TMP DP  RH WIND       PRES   REMARKS
TONOPAH        MOCLDY    35   1  23 NW6       29.91S
$$

NVZ017-020-022-060400-
SOUTHERN NEVADA

CITY           SKY/WX    TMP DP  RH WIND       PRES   REMARKS
LAS VEGAS      CLOUDY    54  19  25 CALM      29.87S
N. LAS VEGAS   CLOUDY    51  19  28 CALM      29.87S
NELLIS AFB     CLOUDY    51  17  26 N3        29.87S
HENDERSON      CLOUDY    50  24  36 CALM      29.89F
MERCURY        MOCLDY    45  17  32 NE5       29.88S
$$



USA.gov is the U.S. government's official web portal to all federal, state and local government web resources and services.